EW8974 Weather Reports


Display with metric or nautical units.
time (UTC)temp
F
wind
direction
speed
MPH
gust
MPH
rain 1hr
in
rain 24hr
in
rain mn
in
humidity
%
barometer
mb
20260510231019 66 59 0.0 6.0 0.00 0.00 0.00 84 1011.3
20260510230519 67 62 0.0 9.0 0.00 0.00 0.00 83 1010.9
20260510230029 67 18 1.0 9.0 0.00 0.00 0.00 81 1011.0
20260510225518 67 105 1.0 8.0 0.00 0.00 0.00 80 1010.9
20260510225021 67 29 2.0 8.0 0.00 0.00 0.00 80 1011.0
20260510224527 68 297 1.0 6.0 0.00 0.00 0.00 80 1011.0
20260510224017 68 81 2.0 7.0 0.00 0.00 0.00 79 1010.9
20260510223014 69 102 3.0 13.0 0.00 0.00 0.00 78 1010.4
20260510222518 70 126 3.0 11.0 0.00 0.00 0.00 77 1010.3
20260510222014 70 69 3.0 10.0 0.00 0.00 0.00 77 1010.2
20260510221519 71 186 4.0 10.0 0.00 0.00 0.00 76 1010.1
20260510221013 71 44 3.0 11.0 0.00 0.00 0.00 76 1010.4
20260510220513 71 44 3.0 14.0 0.00 0.00 0.00 76 1010.4
20260510220012 72 78 4.0 14.0 0.00 0.00 0.00 75 1010.6
20260510215513 72 93 3.0 13.0 0.00 0.00 0.00 75 1010.4
20260510215011 73 103 5.0 15.0 0.00 0.00 0.00 74 1010.2
20260510214511 74 36 6.0 15.0 0.00 0.00 0.00 73 1010.2
20260510214011 75 99 3.0 9.0 0.00 0.00 0.00 71 1010.3
20260510213510 76 37 3.0 7.0 0.00 0.00 0.00 69 1010.3
20260510213011 77 82 1.0 9.0 0.00 0.00 0.00 67 1010.0
20260510212510 78 83 2.0 9.0 0.00 0.00 0.00 65 1009.8
20260510212010 79 55 2.0 9.0 0.00 0.00 0.00 65 1009.8
20260510211510 80 85 1.0 5.0 0.00 0.00 0.00 65 1009.5
20260510211010 79 39 1.0 6.0 0.00 0.00 0.00 66 1009.2
20260510210509 79 221 0.0 9.0 0.00 0.00 0.00 66 1009.1
20260510210011 79 346 1.0 9.0 0.00 0.00 0.00 66 1009.1
20260510205508 79 34 1.0 9.0 0.00 0.00 0.00 66 1009.3
20260510205009 80 34 3.0 9.0 0.00 0.00 0.00 64 1009.5
20260510204509 80 352 1.0 8.0 0.00 0.00 0.00 67 1009.6
20260510204007 79 62 1.0 6.0 0.00 0.00 0.00 68 1009.7
20260510203507 79 103 0.0 5.0 0.00 0.00 0.00 67 1009.6
20260510203009 79 58 1.0 6.0 0.00 0.00 0.00 67 1009.7
20260510202507 78 49 2.0 8.0 0.00 0.00 0.00 69 1009.9
20260510202007 78 75 1.0 8.0 0.00 0.00 0.00 70 1009.8
20260510201508 77 302 0.0 7.0 0.00 0.00 0.00 71 1009.9
20260510201008 76 346 2.0 7.0 0.00 0.00 0.00 72 1010.0
20260510200506 76 146 0.0 7.0 0.00 0.00 0.00 73 1009.9
20260510200006 76 43 1.0 7.0 0.00 0.00 0.00 71 1010.0
20260510195505 77 58 4.0 9.0 0.00 0.00 0.00 69 1010.0
20260510195009 76 33 2.0 9.0 0.00 0.00 0.00 72 1010.1
20260510194510 76 129 1.0 10.0 0.00 0.00 0.00 73 1010.0
20260510194006 76 132 3.0 10.0 0.00 0.00 0.00 73 1010.2
20260510193506 74 33 0.0 7.0 0.00 0.00 0.00 78 1010.0
20260510193006 73 31 0.0 7.0 0.00 0.00 0.00 80 1010.2
20260510192510 72 339 2.0 8.0 0.00 0.00 0.00 79 1010.2
20260510192005 72 123 3.0 11.0 0.00 0.00 0.00 78 1010.2
20260510191505 72 45 4.0 11.0 0.00 0.00 0.00 79 1010.2
20260510191005 71 70 2.0 9.0 0.00 0.00 0.00 79 1010.1
20260510190504 71 13 2.0 9.0 0.00 0.00 0.00 77 1010.2
20260510190004 72 84 2.0 9.0 0.00 0.00 0.00 75 1010.2
20260510185505 72 169 0.0 8.0 0.00 0.00 0.00 74 1010.0
20260510185004 73 339 2.0 8.0 0.00 0.00 0.00 71 1010.0
20260510184504 74 97 1.0 6.0 0.00 0.00 0.00 70 1009.9
20260510184004 75 243 1.0 5.0 0.00 0.00 0.00 70 1009.8
20260510183509 75 257 1.0 5.0 0.00 0.00 0.00 71 1009.5
20260510183004 74 125 1.0 5.0 0.00 0.00 0.00 72 1009.7
20260510182507 73 43 0.0 7.0 0.00 0.00 0.00 74 1009.6
20260510182003 72 209 1.0 7.0 0.00 0.00 0.00 74 1009.4
20260510181503 71 339 0.0 8.0 0.00 0.00 0.00 72 1009.7
20260510181003 72 79 2.0 10.0 0.00 0.00 0.00 70 1010.0
20260510180503 73 63 3.0 10.0 0.00 0.00 0.00 67 1010.4
20260510180005 75 105 3.0 16.0 0.00 0.00 0.00 63 1010.3
20260510175501 79 22 4.0 16.0 0.00 0.00 0.00 58 1010.2
20260510175104 83 49 1.0 5.0 0.00 0.00 0.00 64 1010.1
20260510174606 84 21 0.0 1.0 0.00 0.00 0.00 65 1009.4
20260510174102 83 276 0.0 1.0 0.00 0.00 0.00 65 1009.4
20260510173600 83 343 0.0 1.0 0.00 0.00 0.00 66 1009.3
20260510173058 82 343 0.0 3.0 0.00 0.00 0.00 67 1009.3
20260510172601 82 8 0.0 3.0 0.00 0.00 0.00 66 1009.3
20260510172100 82 139 0.0 4.0 0.00 0.00 0.00 66 1009.3
20260510171611 82 185 0.0 7.0 0.00 0.00 0.00 65 1009.1
20260510171058 83 224 2.0 7.0 0.00 0.00 0.00 64 1009.0
20260510170556 84 179 1.0 8.0 0.00 0.00 0.00 62 1008.8
20260510170058 84 195 2.0 8.0 0.00 0.00 0.00 63 1008.7
20260510165555 84 360 1.0 4.0 0.00 0.00 0.00 65 1008.4
20260510165053 83 41 0.0 7.0 0.00 0.00 0.00 67 1008.3
20260510164606 82 207 1.0 8.0 0.00 0.00 0.00 67 1008.1
20260510164054 82 188 2.0 10.0 0.00 0.00 0.00 67 1008.1
20260510163552 82 206 2.0 10.0 0.00 0.00 0.00 66 1008.0
20260510163127 82 218 2.0 7.0 0.00 0.00 0.00 67 1007.9
20260510162549 81 360 3.0 7.0 0.00 0.00 0.00 67 1007.9
20260510162048 81 231 1.0 10.0 0.00 0.00 0.00 67 1007.9
20260510161547 81 229 4.0 10.0 0.00 0.00 0.00 67 1007.8
20260510161046 81 237 2.0 9.0 0.00 0.00 0.00 68 1007.6
20260510160544 80 63 2.0 9.0 0.00 0.00 0.00 67 1007.3
20260510160045 80 185 2.0 7.0 0.00 0.00 0.00 68 1007.3
20260510155542 80 274 1.0 10.0 0.00 0.00 0.00 68 1007.3
20260510155042 80 182 3.0 10.0 0.00 0.00 0.00 68 1007.2
20260510154541 79 240 1.0 6.0 0.00 0.00 0.00 69 1007.3
20260510154040 79 237 1.0 5.0 0.00 0.00 0.00 69 1007.5
20260510153538 78 255 1.0 5.0 0.00 0.00 0.00 68 1007.4
20260510153054 78 132 1.0 8.0 0.00 0.00 0.00 69 1007.3
20260510152536 77 267 3.0 8.0 0.00 0.00 0.00 67 1007.4
20260510152034 77 226 1.0 8.0 0.00 0.00 0.00 69 1007.5
20260510151535 76 195 1.0 8.0 0.00 0.00 0.00 68 1007.7
20260510151031 76 158 1.0 9.0 0.00 0.00 0.00 71 1007.8
20260510150530 75 179 1.0 9.0 0.00 0.00 0.00 71 1007.8
20260510150037 75 200 2.0 8.0 0.00 0.00 0.00 71 1007.8
20260510145527 74 251 1.0 5.0 0.00 0.00 0.00 73 1007.9
20260510145026 74 216 0.0 5.0 0.00 0.00 0.00 73 1007.9
20260510144529 73 245 1.0 6.0 0.00 0.00 0.00 72 1008.0
20260510144024 73 289 1.0 5.0 0.00 0.00 0.00 73 1008.2
20260510143523 72 259 1.0 4.0 0.00 0.00 0.00 73 1008.3
20260510143032 71 207 0.0 2.0 0.00 0.00 0.00 75 1008.4
20260510142520 71 171 0.0 2.0 0.00 0.00 0.00 76 1008.6
20260510142018 70 262 0.0 2.0 0.00 0.00 0.00 76 1008.8
20260510141518 70 308 0.0 0.0 0.00 0.00 0.00 76 1008.9
20260510141018 69 308 0.0 3.0 0.00 0.00 0.00 76 1009.1
20260510140517 69 308 0.0 3.0 0.00 0.00 0.00 75 1009.1
20260510140017 69 264 0.0 3.0 0.00 0.00 0.00 75 1009.0
20260510135515 69 312 0.0 3.0 0.00 0.00 0.00 75 1008.8
20260510135015 69 323 0.0 3.0 0.00 0.00 0.00 75 1008.7
20260510134515 69 348 0.0 3.0 0.00 0.00 0.00 76 1008.6
20260510134013 68 304 0.0 4.0 0.00 0.00 0.00 76 1008.4
20260510133514 68 207 1.0 4.0 0.00 0.00 0.00 76 1008.4
20260510133014 68 199 0.0 4.0 0.00 0.00 0.00 76 1008.5
20260510132517 68 13 0.0 4.0 0.00 0.00 0.00 76 1008.5
20260510132018 68 179 0.0 4.0 0.00 0.00 0.00 76 1008.5
20260510131522 68 15 0.0 4.0 0.00 0.00 0.00 76 1008.5
20260510131014 68 16 0.0 4.0 0.00 0.00 0.00 77 1008.4
20260510130512 68 129 0.0 3.0 0.00 0.00 0.00 78 1008.4
20260510130012 68 195 0.0 4.0 0.00 0.00 0.00 78 1008.5
20260510125510 68 177 0.0 4.0 0.00 0.00 0.00 78 1008.4
20260510125010 68 306 0.0 1.0 0.00 0.00 0.00 79 1008.3
20260510124519 67 288 0.0 1.0 0.00 0.00 0.00 78 1008.2
20260510124010 67 271 0.0 2.0 0.00 0.00 0.00 79 1008.2
20260510123510 67 271 0.0 2.0 0.00 0.00 0.00 79 1008.1
20260510123010 67 355 0.0 3.0 0.00 0.00 0.00 79 1008.2
20260510122509 67 289 0.0 2.0 0.00 0.00 0.00 79 1008.2
20260510122008 67 176 0.0 1.0 0.00 0.00 0.00 79 1008.0
20260510121515 67 300 0.0 6.0 0.00 0.00 0.00 79 1008.0
20260510121007 67 249 1.0 6.0 0.00 0.00 0.00 79 1008.0
20260510120507 67 20 0.0 2.0 0.00 0.00 0.00 80 1007.9
20260510120009 67 215 0.0 2.0 0.00 0.00 0.00 80 1007.8
20260510115506 67 171 0.0 2.0 0.00 0.00 0.00 80 1007.8
20260510115008 67 238 0.0 2.0 0.00 0.00 0.00 79 1007.8
20260510114507 67 317 0.0 2.0 0.00 0.00 0.00 80 1007.7
20260510114006 67 311 0.0 3.0 0.00 0.00 0.00 79 1007.6
20260510113505 67 204 0.0 3.0 0.00 0.00 0.00 79 1007.6
20260510113005 67 149 0.0 3.0 0.00 0.00 0.00 80 1007.5
20260510112505 67 18 0.0 4.0 0.00 0.00 0.00 79 1007.3
20260510112004 67 287 0.0 4.0 0.00 0.00 0.00 79 1007.2
20260510111505 68 321 0.0 6.0 0.00 0.00 0.00 79 1007.1
20260510111004 68 257 1.0 6.0 0.00 0.00 0.00 79 1007.3
20260510110501 68 314 0.0 3.0 0.00 0.00 0.00 80 1007.3
20260510110002 68 321 1.0 7.0 0.00 0.00 0.00 81 1007.4
20260510105501 68 170 1.0 7.0 0.00 0.00 0.00 82 1007.3
20260510105002 68 247 0.0 7.0 0.00 0.00 0.00 85 1007.5
20260510104601 68 129 2.0 9.0 0.00 0.00 0.00 86 1007.4
20260510104100 69 360 2.0 9.0 0.00 0.00 0.00 90 1007.2
20260510103559 70 22 1.0 5.0 0.00 0.00 0.00 93 1007.2
20260510103058 70 266 0.0 3.0 0.00 0.00 0.00 93 1007.0
20260510102558 69 359 0.0 4.0 0.00 0.00 0.00 93 1007.1
20260510102057 69 91 0.0 5.0 0.00 0.00 0.00 93 1007.2
20260510101557 69 30 0.0 1.0 0.00 0.00 0.00 93 1007.1
20260510101055 69 27 0.0 4.0 0.00 0.00 0.00 93 1007.2
20260510100555 68 108 0.0 4.0 0.00 0.00 0.00 93 1007.2
20260510100110 68 25 0.0 6.0 0.00 0.00 0.00 93 1007.0
20260510095553 68 94 0.0 6.0 0.00 0.00 0.00 93 1007.0
20260510095056 68 77 0.0 4.0 0.00 0.00 0.00 93 1006.8
20260510094600 68 88 0.0 4.0 0.00 0.00 0.00 93 1006.7
20260510094052 68 53 1.0 4.0 0.00 0.00 0.00 93 1006.6
20260510093551 67 34 1.0 4.0 0.00 0.00 0.00 93 1006.7
20260510093057 67 105 0.0 2.0 0.00 0.00 0.00 93 1006.2
20260510092549 67 61 0.0 1.0 0.00 0.00 0.00 93 1005.9
20260510092047 67 61 0.0 0.0 0.00 0.00 0.00 92 1005.6
20260510091546 67 61 0.0 1.0 0.00 0.00 0.00 92 1005.6
20260510091046 67 61 0.0 1.0 0.00 0.00 0.00 92 1005.6
20260510090545 67 61 0.0 0.0 0.00 0.00 0.00 92 1005.5
20260510090050 67 61 0.0 0.0 0.00 0.00 0.00 92 1005.4
20260510085546 67 61 0.0 0.0 0.00 0.00 0.00 92 1005.3
20260510085043 67 61 0.0 1.0 0.00 0.00 0.00 92 1005.2
20260510084605 67 61 0.0 1.0 0.00 0.00 0.00 92 1005.1
20260510084046 67 61 0.0 0.0 0.00 0.00 0.00 92 1004.9
20260510083543 67 61 0.0 1.0 0.00 0.00 0.00 92 1004.8
20260510083045 67 61 0.0 0.0 0.00 0.00 0.00 92 1004.6
20260510082542 67 61 0.0 0.0 0.00 0.00 0.00 92 1004.5
20260510082042 67 61 0.0 0.0 0.00 0.00 0.00 91 1004.4
20260510081551 67 61 0.0 0.0 0.00 0.00 0.00 91 1004.4
20260510081040 67 61 0.0 0.0 0.00 0.00 0.00 91 1004.3
20260510080542 67 61 0.0 0.0 0.00 0.00 0.00 91 1004.2
20260510080044 67 61 0.0 0.0 0.00 0.00 0.00 90 1004.0
20260510075541 67 61 0.0 0.0 0.00 0.00 0.00 90 1004.0
20260510075039 67 61 0.0 0.0 0.00 0.00 0.00 90 1004.0
20260510074537 68 61 0.0 0.0 0.00 0.00 0.00 90 1004.0
20260510074039 68 61 0.0 0.0 0.00 0.00 0.00 89 1004.3
20260510073537 68 61 0.0 0.0 0.00 0.00 0.00 89 1004.4
20260510073037 68 61 0.0 1.0 0.00 0.00 0.00 89 1004.5
20260510072538 69 61 0.0 1.0 0.00 0.00 0.00 89 1004.6
20260510072041 69 61 0.0 1.0 0.00 0.00 0.00 89 1004.5
20260510071543 69 61 0.0 0.0 0.00 0.00 0.00 88 1004.5
20260510071035 69 61 0.0 0.0 0.00 0.00 0.00 88 1004.6
20260510070535 69 61 0.0 1.0 0.00 0.00 0.00 88 1004.8
20260510070040 70 61 0.0 2.0 0.00 0.00 0.00 88 1005.1
20260510065534 70 72 0.0 2.0 0.00 0.00 0.00 88 1005.1
20260510065032 70 75 1.0 2.0 0.00 0.00 0.00 88 1004.7
20260510064531 69 68 0.0 1.0 0.00 0.00 0.00 88 1004.2
20260510064030 69 243 0.0 2.0 0.00 0.00 0.00 87 1003.6
20260510063529 69 217 0.0 2.0 0.00 0.00 0.00 87 1003.4
20260510063029 69 217 0.0 1.0 0.00 0.00 0.00 87 1003.5
20260510062529 69 217 0.0 1.0 0.00 0.00 0.00 87 1003.5
20260510062032 69 217 0.0 2.0 0.00 0.00 0.00 87 1003.5
20260510061528 69 217 0.0 2.0 0.00 0.00 0.00 87 1003.4
20260510061031 69 250 0.0 2.0 0.00 0.00 0.00 87 1003.4
20260510060528 69 18 0.0 1.0 0.00 0.00 0.00 86 1003.5
20260510060026 69 18 0.0 1.0 0.00 0.00 0.00 85 1003.6
20260510055525 69 18 0.0 1.0 0.00 0.00 0.00 84 1003.5
20260510055025 69 18 0.0 1.0 0.00 0.00 0.00 84 1003.5
20260510054524 69 18 0.0 1.0 0.00 0.00 0.00 83 1003.3
20260510054025 69 18 0.0 0.0 0.00 0.00 0.00 83 1003.4
20260510053523 69 18 0.0 0.0 0.00 0.00 0.00 83 1003.3
20260510053026 69 18 0.0 1.0 0.00 0.00 0.00 83 1003.3
20260510052523 69 289 0.0 1.0 0.00 0.00 0.00 83 1003.2
20260510052023 69 48 0.0 1.0 0.00 0.00 0.00 83 1003.3
20260510051522 69 48 0.0 1.0 0.00 0.00 0.00 82 1003.2
20260510051022 68 48 0.0 1.0 0.00 0.00 0.00 82 1003.2
20260510050519 68 48 0.0 1.0 0.00 0.00 0.00 82 1003.0
20260510050023 68 48 0.0 1.0 0.00 0.00 0.00 83 1003.1
20260510045519 68 48 0.0 0.0 0.00 0.00 0.00 83 1003.1
20260510045018 68 48 0.0 1.0 0.00 0.00 0.00 82 1002.9
20260510044528 68 48 0.0 1.0 0.00 0.00 0.00 82 1003.0
20260510044017 68 48 0.0 1.0 0.00 0.00 0.00 82 1003.1
20260510043517 68 48 0.0 0.0 0.00 0.00 0.00 81 1003.2
20260510043017 68 48 0.0 0.0 0.00 0.00 0.00 81 1003.2
20260510042517 68 48 0.0 0.0 0.00 0.00 0.00 80 1003.2
20260510042016 68 48 0.0 0.0 0.00 0.00 0.00 80 1003.2
20260510041518 68 48 0.0 0.0 0.00 0.00 0.00 79 1003.3
20260510041017 68 48 0.0 0.0 0.00 0.00 0.00 79 1003.3
20260510040518 68 48 0.0 0.0 0.00 0.00 0.00 78 1003.3
20260510040016 69 48 0.0 0.0 0.00 0.00 0.00 78 1003.3
20260510035516 69 48 0.0 0.0 0.00 0.00 0.00 77 1003.3
20260510035017 69 48 0.0 0.0 0.00 0.00 0.00 76 1003.3
20260510034516 69 48 0.0 0.0 0.00 0.00 0.00 76 1003.3
20260510034016 69 48 0.0 0.0 0.00 0.00 0.00 75 1003.4
20260510033515 70 48 0.0 0.0 0.00 0.00 0.00 74 1003.3
20260510033015 70 48 0.0 1.0 0.00 0.00 0.00 74 1003.5
20260510032515 70 48 0.0 1.0 0.00 0.00 0.00 74 1003.6
20260510032017 70 48 0.0 0.0 0.00 0.00 0.00 74 1003.6
20260510031515 70 48 0.0 0.0 0.00 0.00 0.00 74 1003.6
20260510031015 70 48 0.0 0.0 0.00 0.00 0.00 73 1003.4
20260510030514 70 48 0.0 0.0 0.00 0.00 0.00 73 1003.4
20260510030014 71 48 0.0 0.0 0.00 0.00 0.00 73 1003.3
20260510025514 71 48 0.0 0.0 0.00 0.00 0.00 73 1003.3
20260510025014 71 48 0.0 0.0 0.00 0.00 0.00 72 1003.2
20260510024516 71 48 0.0 0.0 0.00 0.00 0.00 72 1003.1
20260510024013 72 48 0.0 0.0 0.00 0.00 0.00 71 1003.0
20260510023513 72 48 0.0 0.0 0.00 0.00 0.00 71 1002.9
20260510023014 72 48 0.0 0.0 0.00 0.00 0.00 71 1002.9
20260510022514 72 48 0.0 0.0 0.00 0.00 0.00 71 1002.8
20260510022014 73 48 0.0 0.0 0.00 0.00 0.00 70 1002.8
20260510021517 73 48 0.0 0.0 0.00 0.00 0.00 70 1002.7
20260510021013 73 48 0.0 0.0 0.00 0.00 0.00 70 1002.7
20260510020518 74 48 0.0 0.0 0.00 0.00 0.00 69 1002.6
20260510020013 74 48 0.0 0.0 0.00 0.00 0.00 69 1002.6
20260510015512 75 48 0.0 0.0 0.00 0.00 0.00 68 1002.5
20260510015018 75 48 0.0 0.0 0.00 0.00 0.00 67 1002.5
20260510014512 76 48 0.0 0.0 0.00 0.00 0.00 66 1002.4
20260510014012 76 48 0.0 0.0 0.00 0.00 0.00 66 1002.5
20260510013513 77 48 0.0 1.0 0.00 0.00 0.00 66 1002.4
20260510013012 78 48 0.0 0.0 0.00 0.00 0.00 65 1002.3
20260510012511 79 48 0.0 0.0 0.00 0.00 0.00 64 1002.2
20260510012014 80 48 0.0 1.0 0.00 0.00 0.00 63 1002.3
20260510011523 82 48 0.0 0.0 0.00 0.00 0.00 61 1002.3
20260510011010 83 48 0.0 0.0 0.00 0.00 0.00 59 1002.1
20260510010509 85 48 0.0 0.0 0.00 0.00 0.00 57 1002.2
20260510010009 86 48 0.0 0.0 0.00 0.00 0.00 55 1002.2
20260510005509 88 48 0.0 0.0 0.00 0.00 0.00 53 1002.1
20260510005009 89 48 0.0 0.0 0.00 0.00 0.00 52 1002.0
20260510004512 90 48 0.0 0.0 0.00 0.00 0.00 51 1001.9
20260510004008 90 48 0.0 1.0 0.00 0.00 0.00 49 1002.0
20260510003508 91 48 0.0 1.0 0.00 0.00 0.00 48 1001.9
20260510003011 92 333 0.0 1.0 0.00 0.00 0.00 48 1001.9
20260510002510 93 15 0.0 1.0 0.00 0.00 0.00 46 1001.9
20260510002008 95 224 0.0 1.0 0.00 0.00 0.00 43 1001.9
20260510001508 96 352 0.0 1.0 0.00 0.00 0.00 43 1001.8
20260510001008 96 352 0.0 1.0 0.00 0.00 0.00 43 1001.8
20260510000508 96 350 0.0 1.0 0.00 0.00 0.00 42 1001.8
20260510000014 96 46 0.0 0.0 0.00 0.00 0.00 43 1001.8
20260509235510 95 46 0.0 1.0 0.00 0.00 0.00 42 1001.7
20260509235010 96 46 0.0 1.0 0.00 0.00 0.00 42 1001.7
20260509234507 96 63 0.0 2.0 0.00 0.00 0.00 41 1001.7
20260509234008 97 27 0.0 2.0 0.00 0.00 0.00 40 1001.6
20260509233509 97 320 0.0 3.0 0.00 0.00 0.00 40 1001.6
20260509233005 98 58 0.0 3.0 0.00 0.00 0.00 39 1001.6
20260509232504 97 58 0.0 1.0 0.00 0.00 0.00 38 1001.7
20260509232004 96 66 0.0 1.0 0.00 0.00 0.00 39 1001.6
20260509231504 96 66 0.0 2.0 0.00 0.00 0.00 39 1001.6